Location: Fredericksburg
(30.2750°N, 98.8720°W)
Time: 14:08:07
(UTC-05:00)

Daily predictions for brighter satellites

Satellite Brightness Start Highest point End
(mag) Time Altitude Azimuth Time Altitude Azimuth Time Altitude Azimuth
SL-8 R/B 4.4 20:24:12 10° NW 20:28:47 41° NE 20:33:18 10° ESE
Cosmos 1455 2.7 20:30:21 10° SSE 20:33:52 37° E 20:37:23 10° NNE
In-Cosmos 22 Rocket 4.1 20:32:33 10° N 20:37:52 89° E 20:43:11 10° S
Meteor 1-27 4.3 20:33:57 10° S 20:39:35 86° W 20:45:11 10° N
DELTA 2 R/B (1) 4.2 20:38:43 10° NW 20:44:10 50° NNE 20:49:34 10° E
Cosmos 1697 Rocket 4.3 20:39:11 10° SW 20:44:29 41° WNW 20:49:47 10° N
Cosmos 1869 4.2 20:43:30 10° SSE 20:46:52 28° E 20:50:15 10° NNE
CZ-3B DEB 1.2 20:42:56 10° NNW 20:46:53 42° NE 20:48:45 14° ESE
Spot 2 Rocket 3.8 20:43:57 10° SE 20:48:48 47° ENE 20:53:40 10° N
Lacrosse 5 4.4 20:46:12 10° WNW 20:49:23 17° WSW 20:52:33 10° SSW
Resurs 01 Rocket 1.8 20:46:28 10° SSE 20:50:46 52° ENE 20:55:06 10° N
OAO 3 Rocket 3.8 20:46:02 10° W 20:50:50 58° NNW 20:55:43 10° ENE
SJ-6B 3.4 20:47:56 10° S 20:51:46 61° W 20:55:42 10° NNW
FENGYUN 3A 3.8 20:48:11 10° S 20:53:33 80° W 20:58:55 10° NNW
Cosmos 1892 2.6 20:53:44 10° N 20:57:31 69° E 21:01:18 10° SSE
GRACE-1 4.3 20:55:31 10° NNE 20:58:06 38° E 21:00:31 11° SSE
GRACE-2 4.3 20:55:55 10° NNE 20:58:30 38° E 21:00:51 12° SSE
FALCON 9 R/B 1.4 20:55:48 10° W 20:58:50 40° NNW 21:00:47 11° ENE
Cosmos 2297 Rocket 3.5 20:54:07 10° NW 20:59:24 41° WSW 21:04:39 10° S
Cosmos 1400 Rocket 2.7 20:56:27 10° N 21:00:21 85° E 21:04:18 10° S
H-2A R/B 2.8 20:57:55 10° SSE 21:01:49 89° WSW 21:05:44 10° NNW
Meteor 1-29 3.9 21:01:30 10° NE 21:04:31 28° E 21:06:41 15° SSE
Cosmos 2322 Rocket 2.3 21:00:49 10° S 21:06:13 53° ESE 21:11:40 10° NNE
Cosmos 2263 Rocket 4.1 21:04:28 10° NE 21:06:38 12° ENE 21:08:25 11° ENE
Envisat 3.9 21:05:47 17° ESE 21:08:48 30° ENE 21:13:10 10° NNE
Cosmos 1315 Rocket 2.8 21:10:03 10° N 21:14:04 60° E 21:17:08 16° SSE
Meteor 2-3 Rocket 4.3 21:10:49 10° NNW 21:16:27 62° W 21:22:08 10° S
Cosmos 2360 Rocket 3.3 21:15:49 21° ESE 21:16:48 22° E 21:21:02 10° NE
Cosmos 1980 Rocket 3.9 21:12:18 10° SW 21:17:29 37° WNW 21:22:43 10° N
OTV 4 0.4 21:16:35 10° WNW 21:19:25 68° SSW 21:20:12 42° SE
CZ-2D R/B 3.4 21:18:29 10° S 21:22:22 75° W 21:26:16 10° NNW
H-2A R/B (2) 4.3 21:18:40 10° WSW 21:23:08 29° S 21:33:12 16° SE
GENESIS II 4.1 21:21:36 10° SSW 21:25:36 72° ESE 21:29:39 10° NNE
SEDSat Delta rocket 3.5 21:21:15 10° WSW 21:26:29 82° SSE 21:30:34 21° E
CZ-3 Stage 3 4.0 20:51:14 10° WNW 21:26:33 51° SW 21:31:42 19° SSE
USA 234 4.1 21:22:54 19° E 21:26:51 35° NE 21:32:37 10° NNW
Cosmos 1825 2.9 21:23:33 10° NNE 21:27:00 33° E 21:27:16 32° E
Cosmos 2026 Rocket 4.1 21:24:39 10° N 21:30:42 52° E 21:34:22 23° SSE
SL-16 R/B 2.2 21:28:15 10° SSW 21:33:54 85° WNW 21:39:35 10° NNE
USA 186 1.9 21:34:07 40° SSW 21:34:45 54° W 21:37:27 10° NNW
GPS 2-04 Rocket1 3.6 21:31:53 10° W 21:35:11 33° SSW 21:36:03 29° S
ATLAS CENTAUR R/B 3.1 21:32:29 10° NW 21:35:46 53° SW 21:42:08 16° SSE
GPS 2-17 Rocket1 4.5 21:35:24 10° SW 21:38:38 20° S 21:38:48 20° S
Cosmos 1862 4.2 21:37:04 10° NNE 21:40:18 33° ENE 21:40:18 33° ENE
ERS-1 Rocket 3.9 21:42:09 29° ENE 21:42:29 29° ENE 21:46:48 10° NNE
SAR-Lupe-4 3.4 21:42:20 52° SSE 21:43:07 88° ENE 21:46:43 10° NNW
Helios 1B rocket 3.0 21:39:23 10° N 21:43:24 57° WNW 21:47:24 10° SSW
Cosmos 1634 Rocket 4.5 21:37:33 10° SSW 21:43:44 62° W 21:50:00 10° N
Skynet4D Del rocket 4.4 21:36:15 10° WSW 21:44:27 67° S 21:48:17 32° ESE
Cosmos 1939 Rocket 2.9 21:44:20 52° ESE 21:44:50 57° ENE 21:48:48 10° N
Lacrosse 4 Rocket 2.3 21:41:05 10° N 21:45:03 34° ENE 21:45:08 34° ENE
Intercosmos 25 Rocket 3.0 21:43:45 32° SSW 21:45:04 70° W 21:48:27 10° N
ATLAS 5 CENTAUR R/B 4.1 21:42:26 10° N 21:46:20 17° NE 21:47:45 16° ENE
ERBS 3.6 21:43:19 10° NNW 21:46:04 31° NE 21:46:04 31° NE
Milstar 3 2.8 21:42:23 10° W 21:50:22 73° S 21:53:10 37° ESE
Cosmos 1733 Rocket 3.2 21:46:56 10° N 21:51:17 52° E 21:51:22 52° E
Sakura Rocket 3.6 21:47:37 10° SW 21:50:46 38° S 21:50:46 38° S
Cosmos 1862 Rocket 3.4 21:50:04 40° S 21:51:38 77° E 21:56:06 10° N
SeaSat 1 4.3 21:57:02 16° NE 21:57:02 16° NE 21:59:37 10° NNE
Cosmos 1655 Rocket 3.9 21:51:32 10° N 21:57:55 73° E 22:00:35 37° SSE
Meteor 2-20 Rocket 4.4 21:52:58 10° N 21:59:05 82° W 22:02:48 26° S
SAR-Lupe-1 4.4 22:00:28 60° WSW 22:00:37 60° WSW 22:04:10 10° NNW
Cosmos 1992 Rocket 4.3 21:56:30 10° SSW 22:01:41 66° WNW 22:06:54 10° N
Cosmos 1408 2.8 21:58:22 10° NNW 22:01:58 67° W 22:01:58 67° W
USA 229 DEB 3.6 22:00:26 10° S 22:07:03 57° ESE 22:13:45 10° NE
USA 229 3.6 22:00:32 10° S 22:07:08 57° ESE 22:13:50 10° NE
Atlas Centaur 2 2.8 22:03:54 10° WSW 22:11:03 77° SSE 22:14:12 42° E
Helios 1A 4.4 22:13:13 25° SW 22:14:47 34° W 22:18:39 10° NNW
MetOp-A 4.4 22:28:38 54° NE 22:28:38 54° NE 22:33:06 10° N
Cosmos 1503 Rocket 4.5 22:22:48 10° NNW 22:27:53 54° WSW 22:28:33 50° SW
DELTA 2 R/B (1) 4.0 22:25:14 10° WNW 22:30:21 51° SW 22:30:21 51° SW
H-2A R/B 3.9 22:33:27 19° NNE 22:33:27 19° NNE 22:35:16 10° NNE
OAO 3 Rocket 4.0 22:30:02 10° WNW 22:34:28 48° N 22:34:28 48° N
SPOT 5 4.1 22:43:25 34° N 22:43:25 34° N 22:46:09 10° N
Meteor 2-10 Rocket 4.5 22:46:40 40° WSW 22:48:14 50° W 22:53:52 10° N
COSMOS 2428 4.5 22:52:07 22° NNE 22:52:07 22° NNE 22:54:00 10° NNE
H-2A R/B 3.8 14:43:54 10° SSW 22:48:41 83° S 22:51:40 54° ESE
Cosmos 2263 Rocket 2.6 22:45:30 10° NNW 22:50:08 60° NW 22:50:08 60° NW
Cosmos 2360 Rocket 3.5 22:57:15 21° WSW 23:00:28 37° WNW 23:05:43 10° N
USA 234 3.7 23:10:15 53° WSW 23:10:15 53° WSW 23:15:58 10° NW
Lacrosse 4 Rocket 4.4 23:20:48 10° WNW 23:21:30 12° WNW 23:21:30 12° WNW
ATLAS 5 CENTAUR R/B 3.4 23:25:20 10° NNW 23:29:19 43° NW 23:29:19 43° NW
